Location: Unspecified
(30.7544°N, 0.0000°E)
Time: 00:30:09
(UTC+00:00)

STRAND 1 - Visible Passes

Search period start: 04 April 2026 00:00
Search period end: 14 April 2026 00:00
Orbit: 761 x 775 km, 98.4° (Epoch: 28 March)

Date Brightness Start Highest point End Pass type
(mag) Time Alt. Az. Time Alt. Az. Time Alt. Az.
4 Apr ? 04:32:46 10° SE 04:37:21 36° ENE 04:41:56 10° N visible
5 Apr ? 03:58:51 10° ESE 04:01:44 15° ENE 04:04:37 10° NNE visible
6 Apr ? 04:59:22 10° SSE 05:04:24 70° ENE 05:09:27 10° N visible
6 Apr ? 18:54:24 10° NNW 18:57:58 20° WNW 19:01:32 10° WSW visible
7 Apr ? 04:24:19 10° SE 04:28:38 29° ENE 04:32:58 10° NNE visible
8 Apr ? 03:51:01 10° E 03:53:03 12° ENE 03:55:05 10° NE visible
9 Apr ? 04:50:42 10° SSE 04:55:38 56° ENE 05:00:36 10° N visible
9 Apr ? 18:45:15 10° NNW 18:49:16 24° WNW 18:53:16 10° WSW visible
10 Apr ? 04:15:57 10° ESE 04:19:55 24° ENE 04:23:54 10° NNE visible
11 Apr ? 19:14:02 10° NW 19:16:07 13° WNW 19:18:13 10° W visible
12 Apr ? 04:42:05 10° SE 04:46:53 45° ENE 04:51:41 10° N visible
13 Apr ? 04:07:40 10° ESE 04:11:12 19° ENE 04:14:45 10° NNE visible
